,,,PA_Meas_PMT16A,,PR_Meas_QMR101_102,,RH_Meas_QMH101,,SR_Meas_QMS101,,TA_Meas_QMH101,,GenWind,,GenWind,
date,time,status,PA,status,PR,status,RH,status,SR,status,TA,status,DirAvg,status,SpdAvg,
2009-02-10, 00:00:04,VALID,1004.86,VALID,0,VALID,91.9585,VALID,0.100563,VALID,24.8132,VALID,70,VALID,0,
2009-02-10, 00:01:04,VALID,1004.86,VALID,0,VALID,91.867,VALID,0,VALID,24.7529,VALID,58,VALID,0.293359,
2009-02-10, 00:02:04,VALID,1004.87,VALID,0,VALID,91.8746,VALID,0.100563,VALID,24.7159,VALID,57,VALID,0.255859,
2009-02-10, 00:03:04,VALID,1004.8,VALID,0,VALID,91.9585,VALID,0.100563,VALID,24.7159,VALID,57,VALID,0.254687,
2009-02-10, 00:04:04,VALID,1004.84,VALID,0,VALID,92.1187,VALID,0.100563,VALID,24.6945,VALID,57,VALID,0.322656,
2009-02-10, 00:05:04,VALID,1004.83,VALID,0,VALID,92.2637,VALID,0.100563,VALID,24.6964,VALID,57,VALID,0.342187,
2009-02-10, 00:06:04,VALID,1004.83,VALID,0,VALID,92.2713,VALID,0.100563,VALID,24.6556,VALID,20,VALID,0.547266,
2009-02-10, 00:07:04,VALID,1004.84,VALID,0,VALID,92.3857,VALID,0.100563,VALID,24.6361,VALID,3,VALID,0.431641,
2009-02-10, 00:08:04,VALID,1004.83,VALID,0,VALID,92.4697,VALID,0.100563,VALID,24.6556,VALID,3,VALID,0.416406,
2009-02-10, 00:09:05,VALID,1004.85,VALID,0,VALID,92.5383,VALID,0.100563,VALID,24.6556,VALID,3,VALID,0.421484,
2009-02-10, 00:10:05,VALID,1004.82,VALID,0,VALID,92.5765,VALID,0.100563,VALID,24.6361,VALID,3,VALID,0.510156,
2009-02-10, 00:11:05,VALID,1004.87,VALID,0,VALID,92.5765,VALID,0.100563,VALID,24.6166,VALID,3,VALID,0.157031,
2009-02-10, 00:12:05,VALID,1004.84,VALID,0,VALID,92.6528,VALID,0.100563,VALID,24.6166,VALID,3,VALID,0.214844,
2009-02-10, 00:13:05,VALID,1004.82,VALID,0,VALID,92.6756,VALID,0,VALID,24.6166,VALID,3,VALID,0.274609,
2009-02-10, 00:14:05,VALID,1004.82,VALID,0,VALID,92.7138,VALID,0.100563,VALID,24.5972,VALID,3,VALID,0.219922,
2009-02-10, 00:15:05,VALID,1004.78,VALID,0,VALID,92.7596,VALID,0.100563,VALID,24.5777,VALID,3,VALID,0.245312,
2009-02-10, 00:16:05,VALID,1004.79,VALID,0,VALID,92.7977,VALID,0,VALID,24.5777,VALID,3,VALID,0.188281,
2009-02-10, 00:17:05,VALID,1004.78,VALID,0,VALID,92.8435,VALID,0,VALID,24.5777,VALID,3,VALID,0.121484,
2009-02-10, 00:18:05,VALID,1004.74,VALID,0,VALID,92.935,VALID,0.100563,VALID,24.6185,VALID,3,VALID,0.0191406,
2009-02-10, 00:19:05,VALID,1004.77,VALID,0,VALID,92.9884,VALID,0.100563,VALID,24.5777,VALID,3,VALID,0,
2009-02-10, 00:20:05,VALID,1004.76,VALID,0,VALID,92.8892,VALID,0.100563,VALID,24.5796,VALID,3,VALID,0,
2009-02-10, 00:21:05,VALID,1004.74,VALID,0,VALID,92.9426,VALID,0,VALID,24.5388,VALID,3,VALID,0,
2009-02-10, 00:22:05,VALID,1004.75,VALID,0,VALID,92.9808,VALID,0.100563,VALID,24.5174,VALID,3,VALID,0,
2009-02-10, 00:23:05,VALID,1004.72,VALID,0,VALID,92.9503,VALID,0,VALID,24.5388,VALID,3,VALID,0,
2009-02-10, 00:24:05,VALID,1004.72,VALID,0,VALID,92.9045,VALID,0.100563,VALID,24.5406,VALID,3,VALID,0.0113281,
2009-02-10, 00:25:05,VALID,1004.73,VALID,0,VALID,92.9045,VALID,0.100563,VALID,24.5193,VALID,3,VALID,0,
2009-02-10, 00:26:05,VALID,1004.72,VALID,0,VALID,92.9121,VALID,0,VALID,24.523,VALID,3,VALID,0.269531,
2009-02-10, 00:27:05,VALID,1004.72,VALID,0,VALID,92.8969,VALID,0,VALID,24.523,VALID,3,VALID,0.307031,
2009-02-10, 00:28:05,VALID,1004.75,VALID,0,VALID,92.9503,VALID,0,VALID,24.5035,VALID,3,VALID,0.188281,
2009-02-10, 00:29:05,VALID,1004.73,VALID,0,VALID,92.9274,VALID,0,VALID,24.5035,VALID,3,VALID,0,
2009-02-10, 00:30:05,VALID,1004.72,VALID,0,VALID,92.9426,VALID,0,VALID,24.4628,VALID,3,VALID,0,
2009-02-10, 00:31:05,VALID,1004.69,VALID,0,VALID,92.9045,VALID,0,VALID,24.4841,VALID,3,VALID,0.271875,
2009-02-10, 00:32:05,VALID,1004.7,VALID,0,VALID,92.9198,VALID,0,VALID,24.4628,VALID,3,VALID,0.163672,
2009-02-10, 00:33:05,VALID,1004.7,VALID,0,VALID,92.935,VALID,0,VALID,24.4841,VALID,3,VALID,0.359375,
2009-02-10, 00:34:05,VALID,1004.69,VALID,0,VALID,92.9732,VALID,0,VALID,24.4841,VALID,3,VALID,0.391016,
2009-02-10, 00:35:05,VALID,1004.65,VALID,0,VALID,92.9655,VALID,0,VALID,24.4628,VALID,3,VALID,0.192188,
2009-02-10, 00:36:05,VALID,1004.66,VALID,0,VALID,93.0266,VALID,0,VALID,24.5054,VALID,3,VALID,0,
2009-02-10, 00:37:05,VALID,1004.63,VALID,0,VALID,93.0266,VALID,0,VALID,24.4646,VALID,3,VALID,0.0894531,
2009-02-10, 00:38:05,VALID,1004.61,VALID,0,VALID,93.0647,VALID,0,VALID,24.4646,VALID,3,VALID,0.0105469,
2009-02-10, 00:39:05,VALID,1004.6,VALID,0,VALID,93.0647,VALID,0,VALID,24.4628,VALID,3,VALID,0.0367187,
2009-02-10, 00:40:05,VALID,1004.6,VALID,0,VALID,93.1791,VALID,0,VALID,24.4841,VALID,3,VALID,0.0261719,
2009-02-10, 00:41:05,VALID,1004.57,VALID,0,VALID,93.2249,VALID,0,VALID,24.4628,VALID,3,VALID,0.174219,
2009-02-10, 00:42:05,VALID,1004.55,VALID,0,VALID,93.2173,VALID,0,VALID,24.4433,VALID,3,VALID,0,
2009-02-10, 00:43:05,VALID,1004.56,VALID,0,VALID,93.2478,VALID,0,VALID,24.4628,VALID,3,VALID,0,
2009-02-10, 00:44:05,VALID,1004.52,VALID,0,VALID,93.2783,VALID,0,VALID,24.4433,VALID,3,VALID,0.484766,
2009-02-10, 00:45:05,VALID,1004.5,VALID,0,VALID,93.347,VALID,0,VALID,24.4646,VALID,3,VALID,0.503906,
2009-02-10, 00:46:05,VALID,1004.49,VALID,0,VALID,93.3622,VALID,0,VALID,24.4646,VALID,3,VALID,0.43125,
2009-02-10, 00:47:05,VALID,1004.48,VALID,0,VALID,93.4233,VALID,0,VALID,24.4646,VALID,3,VALID,0.359375,
2009-02-10, 00:48:05,VALID,1004.5,VALID,0,VALID,93.4538,VALID,0,VALID,24.4646,VALID,3,VALID,0.447656,
2009-02-10, 00:49:05,VALID,1004.51,VALID,0,VALID,93.4996,VALID,0,VALID,24.4451,VALID,3,VALID,0.545313,
2009-02-10, 00:50:05,VALID,1004.45,VALID,0,VALID,93.5148,VALID,0,VALID,24.4043,VALID,3,VALID,0.501172,
2009-02-10, 00:51:05,VALID,1004.47,VALID,0,VALID,93.5606,VALID,0,VALID,24.4043,VALID,3,VALID,0.302734,
2009-02-10, 00:52:05,VALID,1004.46,VALID,0,VALID,93.5758,VALID,0,VALID,24.4257,VALID,3,VALID,0.420703,
2009-02-10, 00:53:05,VALID,1004.46,VALID,0,VALID,93.5911,VALID,0,VALID,24.4257,VALID,3,VALID,0.343359,
2009-02-10, 00:54:05,VALID,1004.43,VALID,0,VALID,93.5835,VALID,0,VALID,24.3849,VALID,3,VALID,0.497656,
2009-02-10, 00:55:05,VALID,1004.45,VALID,0,VALID,93.614,VALID,0,VALID,24.4275,VALID,3,VALID,0.482031,
2009-02-10, 00:56:05,VALID,1004.43,VALID,0,VALID,93.6445,VALID,0.100563,VALID,24.4043,VALID,3,VALID,0.369531,
2009-02-10, 00:57:05,VALID,1004.42,VALID,0,VALID,93.6903,VALID,0.100563,VALID,24.4238,VALID,3,VALID,0.299219,
2009-02-10, 00:58:05,VALID,1004.44,VALID,0,VALID,93.6979,VALID,0,VALID,24.4043,VALID,3,VALID,0.309375,
2009-02-10, 00:59:05,VALID,1004.43,VALID,0,VALID,93.7132,VALID,0.100563,VALID,24.4025,VALID,3,VALID,0.129297,
2009-02-10, 01:00:05,VALID,1004.44,VALID,0,VALID,93.6979,VALID,0.100563,VALID,24.4043,VALID,3,VALID,0,
2009-02-10, 01:01:05,VALID,1004.41,VALID,0,VALID,93.7208,VALID,0,VALID,24.4025,VALID,3,VALID,0,
2009-02-10, 01:02:05,VALID,1004.43,VALID,0,VALID,93.7437,VALID,0.100563,VALID,24.4043,VALID,3,VALID,0,
2009-02-10, 01:03:05,VALID,1004.41,VALID,0,VALID,93.7437,VALID,0,VALID,24.4043,VALID,3,VALID,0,
2009-02-10, 01:04:05,VALID,1004.42,VALID,0,VALID,93.7361,VALID,0.100563,VALID,24.383,VALID,3,VALID,0,
2009-02-10, 01:05:05,VALID,1004.45,VALID,0,VALID,93.7666,VALID,0.100563,VALID,24.4043,VALID,3,VALID,0,
2009-02-10, 01:06:05,VALID,1004.42,VALID,0,VALID,93.7513,VALID,0.100563,VALID,24.383,VALID,3,VALID,0,
2009-02-10, 01:07:05,VALID,1004.41,VALID,0,VALID,93.7437,VALID,0.100563,VALID,24.383,VALID,3,VALID,0,
2009-02-10, 01:08:05,VALID,1004.41,VALID,0,VALID,93.7513,VALID,0.100563,VALID,24.3849,VALID,3,VALID,0,
2009-02-10, 01:09:05,VALID,1004.4,VALID,0,VALID,93.7589,VALID,0.100563,VALID,24.3636,VALID,3,VALID,0,
2009-02-10, 01:10:05,VALID,1004.4,VALID,0,VALID,93.7742,VALID,0,VALID,24.3636,VALID,3,VALID,0,
2009-02-10, 01:11:05,VALID,1004.4,VALID,0,VALID,93.7589,VALID,0,VALID,24.3441,VALID,3,VALID,0,
2009-02-10, 01:12:05,VALID,1004.39,VALID,0,VALID,93.7513,VALID,0.100563,VALID,24.3654,VALID,3,VALID,0.508984,
2009-02-10, 01:13:05,VALID,1004.38,VALID,0,VALID,93.7742,VALID,0.100563,VALID,24.3654,VALID,3,VALID,0.350781,
2009-02-10, 01:14:05,VALID,1004.36,VALID,0,VALID,93.8352,VALID,0,VALID,24.3849,VALID,3,VALID,0.46875,
2009-02-10, 01:15:05,VALID,1004.35,VALID,0,VALID,93.8886,VALID,0.100563,VALID,24.4238,VALID,3,VALID,0.430469,
2009-02-10, 01:16:05,VALID,1004.37,VALID,0,VALID,93.881,VALID,0.100563,VALID,24.4628,VALID,3,VALID,0.485938,
2009-02-10, 01:17:05,VALID,1004.38,VALID,0,VALID,93.8963,VALID,0.100563,VALID,24.4628,VALID,3,VALID,0.310937,
2009-02-10, 01:18:05,VALID,1004.38,VALID,0,VALID,93.9039,VALID,0,VALID,24.4414,VALID,3,VALID,0.412109,
2009-02-10, 01:19:05,VALID,1004.39,VALID,0,VALID,93.8886,VALID,0,VALID,24.4433,VALID,3,VALID,0.41875,
2009-02-10, 01:20:05,VALID,1004.37,VALID,0,VALID,93.9039,VALID,0.100563,VALID,24.422,VALID,3,VALID,0.3,
2009-02-10, 01:21:05,VALID,1004.41,VALID,0,VALID,93.8963,VALID,0.100563,VALID,24.4433,VALID,3,VALID,0,
2009-02-10, 01:22:05,VALID,1004.4,VALID,0,VALID,93.9115,VALID,0.100563,VALID,24.4433,VALID,3,VALID,0,
2009-02-10, 01:23:05,VALID,1004.41,VALID,0,VALID,93.9115,VALID,0.100563,VALID,24.422,VALID,3,VALID,0,
2009-02-10, 01:24:05,VALID,1004.42,VALID,0,VALID,93.9191,VALID,0.100563,VALID,24.422,VALID,3,VALID,0,
2009-02-10, 01:25:05,VALID,1004.45,VALID,0,VALID,93.942,VALID,0.100563,VALID,24.4433,VALID,3,VALID,0.130469,
2009-02-10, 01:26:05,VALID,1004.41,VALID,0,VALID,93.9649,VALID,0,VALID,24.4433,VALID,3,VALID,0,
2009-02-10, 01:27:05,VALID,1004.43,VALID,0,VALID,93.9573,VALID,0,VALID,24.4433,VALID,3,VALID,0.274219,
2009-02-10, 01:28:05,VALID,1004.39,VALID,0,VALID,93.9878,VALID,0,VALID,24.4628,VALID,3,VALID,0.333984,
2009-02-10, 01:29:05,VALID,1004.41,VALID,0,VALID,94.0031,VALID,0,VALID,24.4628,VALID,3,VALID,0.0523437,
2009-02-10, 01:30:05,VALID,1004.42,VALID,0,VALID,93.9878,VALID,0,VALID,24.4433,VALID,3,VALID,0,
2009-02-10, 01:31:05,VALID,1004.41,VALID,0,VALID,93.9954,VALID,0,VALID,24.422,VALID,3,VALID,0,
2009-02-10, 01:32:05,VALID,1004.41,VALID,0,VALID,93.9878,VALID,0,VALID,24.4628,VALID,3,VALID,0,
2009-02-10, 01:33:05,VALID,1004.41,VALID,0,VALID,93.9725,VALID,0,VALID,24.4628,VALID,3,VALID,0,
2009-02-10, 01:34:05,VALID,1004.39,VALID,0,VALID,93.9573,VALID,0,VALID,24.4822,VALID,3,VALID,0,
2009-02-10, 01:35:05,VALID,1004.41,VALID,0,VALID,94.0107,VALID,0,VALID,24.4822,VALID,3,VALID,0,
2009-02-10, 01:36:05,VALID,1004.41,VALID,0,VALID,93.9573,VALID,0,VALID,24.5017,VALID,3,VALID,0,
2009-02-10, 01:37:05,VALID,1004.41,VALID,0,VALID,93.9344,VALID,0,VALID,24.5017,VALID,3,VALID,0,
2009-02-10, 01:38:05,VALID,1004.4,VALID,0,VALID,93.8886,VALID,0,VALID,24.5212,VALID,3,VALID,0,
2009-02-10, 01:39:05,VALID,1004.4,VALID,0,VALID,93.8581,VALID,0,VALID,24.5212,VALID,3,VALID,0,
2009-02-10, 01:40:05,VALID,1004.38,VALID,0,VALID,93.8276,VALID,0,VALID,24.5017,VALID,3,VALID,0,
2009-02-10, 01:41:05,VALID,1004.37,VALID,0,VALID,93.82,VALID,0.100563,VALID,24.4998,VALID,3,VALID,0.0929687,
2009-02-10, 01:42:05,VALID,1004.38,VALID,0,VALID,93.82,VALID,0,VALID,24.4998,VALID,3,VALID,0.0246094,
2009-02-10, 01:43:05,VALID,1004.37,VALID,0,VALID,93.7818,VALID,0,VALID,24.5406,VALID,3,VALID,0,
2009-02-10, 01:44:05,VALID,1004.37,VALID,0,VALID,93.7513,VALID,0.100563,VALID,24.5406,VALID,3,VALID,0,
2009-02-10, 01:45:05,VALID,1004.38,VALID,0,VALID,93.7895,VALID,0.100563,VALID,24.5193,VALID,3,VALID,0.0148437,
2009-02-10, 01:46:05,VALID,1004.37,VALID,0,VALID,93.7589,VALID,0.100563,VALID,24.5601,VALID,3,VALID,0,
2009-02-10, 01:47:05,VALID,1004.36,VALID,0,VALID,93.7589,VALID,0,VALID,24.5388,VALID,3,VALID,0,
2009-02-10, 01:48:05,VALID,1004.34,VALID,0,VALID,93.7284,VALID,0.100563,VALID,24.5601,VALID,3,VALID,0.415625,
2009-02-10, 01:49:05,VALID,1004.33,VALID,0,VALID,93.7132,VALID,0.100563,VALID,24.5777,VALID,3,VALID,0.0730469,
2009-02-10, 01:50:05,VALID,1004.32,VALID,0,VALID,93.6598,VALID,0.100563,VALID,24.6166,VALID,3,VALID,0.0527344,
2009-02-10, 01:51:05,VALID,1004.3,VALID,0,VALID,93.5148,VALID,0.100563,VALID,24.6166,VALID,3,VALID,0.103516,
2009-02-10, 01:52:05,VALID,1004.27,VALID,0,VALID,93.469,VALID,0.100563,VALID,24.6556,VALID,3,VALID,0.270703,
2009-02-10, 01:53:05,VALID,1004.26,VALID,0,VALID,93.4462,VALID,0,VALID,24.6964,VALID,3,VALID,0.471094,
2009-02-10, 01:54:05,VALID,1004.25,VALID,0,VALID,93.3928,VALID,0,VALID,24.6964,VALID,3,VALID,0.239063,
2009-02-10, 01:55:05,VALID,1004.25,VALID,0,VALID,93.3546,VALID,0.100563,VALID,24.6769,VALID,3,VALID,0.240625,
2009-02-10, 01:56:05,VALID,1004.2,VALID,0,VALID,93.3546,VALID,0.100563,VALID,24.6769,VALID,3,VALID,0,
2009-02-10, 01:57:05,VALID,1004.19,VALID,0,VALID,93.3317,VALID,0,VALID,24.6556,VALID,3,VALID,0,
2009-02-10, 01:58:05,VALID,1004.18,VALID,0,VALID,93.2783,VALID,0.100563,VALID,24.6361,VALID,3,VALID,0,
2009-02-10, 01:59:05,VALID,1004.14,VALID,0,VALID,93.3088,VALID,0.100563,VALID,24.6574,VALID,3,VALID,0,
2009-02-10, 02:00:05,VALID,1004.16,VALID,0,VALID,93.3241,VALID,0,VALID,24.5972,VALID,3,VALID,0,
2009-02-10, 02:01:05,VALID,1004.15,VALID,0,VALID,93.3546,VALID,0.100563,VALID,24.5777,VALID,3,VALID,0,
2009-02-10, 02:02:05,VALID,1004.11,VALID,0,VALID,93.3851,VALID,0,VALID,24.5777,VALID,3,VALID,0,
2009-02-10, 02:03:05,VALID,1004.14,VALID,0,VALID,93.4385,VALID,0.100563,VALID,24.5582,VALID,3,VALID,0,
2009-02-10, 02:04:05,VALID,1004.11,VALID,0,VALID,93.4614,VALID,0,VALID,24.5582,VALID,3,VALID,0,
2009-02-10, 02:05:05,VALID,1004.1,VALID,0,VALID,93.4462,VALID,0.100563,VALID,24.5388,VALID,3,VALID,0,
2009-02-10, 02:06:05,VALID,1004.06,VALID,0,VALID,93.4538,VALID,0.100563,VALID,24.5406,VALID,3,VALID,0,
2009-02-10, 02:07:05,VALID,1004.09,VALID,0,VALID,93.4233,VALID,0,VALID,24.5406,VALID,3,VALID,0,
2009-02-10, 02:08:05,VALID,1004.08,VALID,0,VALID,93.4156,VALID,0.100563,VALID,24.5193,VALID,3,VALID,0,
2009-02-10, 02:09:05,VALID,1004.03,VALID,0,VALID,93.4156,VALID,0.100563,VALID,24.5388,VALID,3,VALID,0,
2009-02-10, 02:10:05,VALID,1004.03,VALID,0,VALID,93.3699,VALID,0,VALID,24.5193,VALID,3,VALID,0,
2009-02-10, 02:11:05,VALID,1004.01,VALID,0,VALID,93.3317,VALID,0,VALID,24.5406,VALID,3,VALID,0,
2009-02-10, 02:12:05,VALID,1003.99,VALID,0,VALID,93.3241,VALID,0.100563,VALID,24.5388,VALID,3,VALID,0,
2009-02-10, 02:13:05,VALID,1003.98,VALID,0,VALID,93.3165,VALID,0.100563,VALID,24.5388,VALID,3,VALID,0,
2009-02-10, 02:14:05,VALID,1003.97,VALID,0,VALID,93.2707,VALID,0.100563,VALID,24.5193,VALID,3,VALID,0,
2009-02-10, 02:15:05,VALID,1003.94,VALID,0,VALID,93.2783,VALID,0.100563,VALID,24.5193,VALID,3,VALID,0,
2009-02-10, 02:16:05,VALID,1003.92,VALID,0,VALID,93.2478,VALID,0.100563,VALID,24.5193,VALID,3,VALID,0,
2009-02-10, 02:17:05,VALID,1003.9,VALID,0,VALID,93.2554,VALID,0,VALID,24.4785,VALID,3,VALID,0,
2009-02-10, 02:18:05,VALID,1003.85,VALID,0,VALID,93.2402,VALID,0.100563,VALID,24.5406,VALID,13,VALID,0.0902344,
2009-02-10, 02:19:05,VALID,1003.84,VALID,0,VALID,93.2173,VALID,0.100563,VALID,24.5193,VALID,29,VALID,0.398828,
2009-02-10, 02:20:05,VALID,1003.85,VALID,0,VALID,93.1868,VALID,0,VALID,24.5017,VALID,30,VALID,0.220703,
2009-02-10, 02:21:05,VALID,1003.8,VALID,0,VALID,93.1563,VALID,0.100563,VALID,24.5212,VALID,30,VALID,0.347266,
2009-02-10, 02:22:05,VALID,1003.78,VALID,0,VALID,93.1257,VALID,0,VALID,24.4998,VALID,30,VALID,0.330078,
2009-02-10, 02:23:05,VALID,1003.75,VALID,0,VALID,93.0952,VALID,0.100563,VALID,24.4998,VALID,30,VALID,0.320703,
2009-02-10, 02:24:05,VALID,1003.74,VALID,0,VALID,93.0418,VALID,0,VALID,24.5193,VALID,30,VALID,0.493359,
2009-02-10, 02:25:05,VALID,1003.74,VALID,0,VALID,93.0037,VALID,0.100563,VALID,24.5193,VALID,30,VALID,0.112891,
2009-02-10, 02:26:05,VALID,1003.75,VALID,0,VALID,92.9274,VALID,0,VALID,24.5406,VALID,30,VALID,0.0535156,
2009-02-10, 02:27:05,VALID,1003.74,VALID,0,VALID,92.8664,VALID,0,VALID,24.562,VALID,29,VALID,0.272656,
2009-02-10, 02:28:05,VALID,1003.71,VALID,0,VALID,92.8206,VALID,0,VALID,24.5406,VALID,29,VALID,0.348047,
2009-02-10, 02:29:05,VALID,1003.72,VALID,0,VALID,92.7519,VALID,0,VALID,24.5601,VALID,29,VALID,0.317969,
2009-02-10, 02:30:05,VALID,1003.72,VALID,0,VALID,92.729,VALID,0,VALID,24.5796,VALID,29,VALID,0.162891,
2009-02-10, 02:31:05,VALID,1003.72,VALID,0,VALID,92.7519,VALID,0,VALID,24.5796,VALID,29,VALID,0.2375,
2009-02-10, 02:32:05,VALID,1003.74,VALID,0,VALID,92.7367,VALID,0,VALID,24.6009,VALID,29,VALID,0.103906,
2009-02-10, 02:33:05,VALID,1003.73,VALID,0,VALID,92.7596,VALID,0,VALID,24.5814,VALID,29,VALID,0.175781,
2009-02-10, 02:34:05,VALID,1003.72,VALID,0,VALID,92.7138,VALID,0,VALID,24.5406,VALID,29,VALID,0.537891,
2009-02-10, 02:35:05,VALID,1003.71,VALID,0,VALID,92.6451,VALID,0,VALID,24.523,VALID,29,VALID,0.555859,
2009-02-10, 02:36:05,VALID,1003.69,VALID,0,VALID,92.6299,VALID,0,VALID,24.5425,VALID,29,VALID,0.364062,
2009-02-10, 02:37:05,VALID,1003.68,VALID,0,VALID,92.668,VALID,0,VALID,24.5212,VALID,29,VALID,0.229297,
2009-02-10, 02:38:05,VALID,1003.67,VALID,0,VALID,92.668,VALID,0,VALID,24.5406,VALID,29,VALID,0.378906,
2009-02-10, 02:39:05,VALID,1003.65,VALID,0,VALID,92.6756,VALID,0,VALID,24.5425,VALID,29,VALID,0.493359,
2009-02-10, 02:40:05,VALID,1003.63,VALID,0,VALID,92.6375,VALID,0,VALID,24.523,VALID,29,VALID,0.608984,
2009-02-10, 02:41:05,VALID,1003.64,VALID,0,VALID,92.5917,VALID,0,VALID,24.5017,VALID,29,VALID,0.260547,
2009-02-10, 02:42:05,VALID,1003.59,VALID,0,VALID,92.5765,VALID,0,VALID,24.4804,VALID,29,VALID,0.200391,
2009-02-10, 02:43:05,VALID,1003.61,VALID,0,VALID,92.6222,VALID,0,VALID,24.5017,VALID,28,VALID,0.366016,
2009-02-10, 02:44:05,VALID,1003.6,VALID,0,VALID,92.6375,VALID,0,VALID,24.5017,VALID,28,VALID,0.31875,
2009-02-10, 02:45:05,VALID,1003.55,VALID,0,VALID,92.5917,VALID,0,VALID,24.4804,VALID,27,VALID,0.247266,
2009-02-10, 02:46:05,VALID,1003.58,VALID,0,VALID,92.5917,VALID,0,VALID,24.4609,VALID,27,VALID,0.308203,
2009-02-10, 02:47:05,VALID,1003.56,VALID,0,VALID,92.6375,VALID,0.100563,VALID,24.4609,VALID,27,VALID,0.297266,
2009-02-10, 02:48:05,VALID,1003.54,VALID,0,VALID,92.7062,VALID,0,VALID,24.4414,VALID,26,VALID,0.464844,
2009-02-10, 02:49:05,VALID,1003.53,VALID,0,VALID,92.7443,VALID,0,VALID,24.4414,VALID,26,VALID,0.325391,
2009-02-10, 02:50:05,VALID,1003.53,VALID,0,VALID,92.7901,VALID,0,VALID,24.422,VALID,26,VALID,0.246875,
2009-02-10, 02:51:05,VALID,1003.51,VALID,0,VALID,92.8282,VALID,0,VALID,24.4238,VALID,26,VALID,0.223828,
2009-02-10, 02:52:04,VALID,1003.52,VALID,0,VALID,92.9198,VALID,0,VALID,24.383,VALID,26,VALID,0.125781,
2009-02-10, 02:53:04,VALID,1003.49,VALID,0,VALID,92.9808,VALID,0,VALID,24.3636,VALID,26,VALID,0.204688,
2009-02-10, 02:54:04,VALID,1003.5,VALID,0,VALID,93.0418,VALID,0,VALID,24.3441,VALID,26,VALID,0.283203,
2009-02-10, 02:55:04,VALID,1003.49,VALID,0,VALID,93.1334,VALID,0.100563,VALID,24.3441,VALID,26,VALID,0.121094,
2009-02-10, 02:56:04,VALID,1003.49,VALID,0,VALID,93.1944,VALID,0,VALID,24.3246,VALID,26,VALID,0.294141,
2009-02-10, 02:57:04,VALID,1003.5,VALID,0,VALID,93.2478,VALID,0,VALID,24.3654,VALID,26,VALID,0,
2009-02-10, 02:58:04,VALID,1003.49,VALID,0,VALID,93.3012,VALID,0,VALID,24.3052,VALID,26,VALID,0.344922,
2009-02-10, 02:59:04,VALID,1003.44,VALID,0,VALID,93.3394,VALID,0,VALID,24.3265,VALID,26,VALID,0.398047,
2009-02-10, 03:00:04,VALID,1003.46,VALID,0,VALID,93.3394,VALID,0,VALID,24.307,VALID,26,VALID,0.358984,
2009-02-10, 03:01:04,VALID,1003.47,VALID,0,VALID,93.3775,VALID,0,VALID,24.2662,VALID,26,VALID,0.275391,
2009-02-10, 03:02:04,VALID,1003.45,VALID,0,VALID,93.4309,VALID,0.100563,VALID,24.2468,VALID,26,VALID,0.221094,
2009-02-10, 03:03:04,VALID,1003.48,VALID,0,VALID,93.4614,VALID,0.100563,VALID,24.2875,VALID,26,VALID,0.267188,
2009-02-10, 03:04:04,VALID,1003.48,VALID,0,VALID,93.5377,VALID,0.100563,VALID,24.2662,VALID,26,VALID,0.203906,
2009-02-10, 03:05:04,VALID,1003.46,VALID,0,VALID,93.5377,VALID,0,VALID,24.2468,VALID,26,VALID,0.273828,
2009-02-10, 03:06:04,VALID,1003.48,VALID,0,VALID,93.5148,VALID,0,VALID,24.2468,VALID,26,VALID,0.211719,
2009-02-10, 03:07:04,VALID,1003.45,VALID,0,VALID,93.5377,VALID,0,VALID,24.2273,VALID,26,VALID,0.316016,
2009-02-10, 03:08:04,VALID,1003.48,VALID,0,VALID,93.5377,VALID,0,VALID,24.2273,VALID,26,VALID,0.270312,
2009-02-10, 03:09:04,VALID,1003.44,VALID,0,VALID,93.553,VALID,0,VALID,24.2273,VALID,26,VALID,0.0386719,
2009-02-10, 03:10:04,VALID,1003.48,VALID,0,VALID,93.5758,VALID,0.100563,VALID,24.2273,VALID,26,VALID,0,
2009-02-10, 03:11:04,VALID,1003.48,VALID,0,VALID,93.5758,VALID,0,VALID,24.2291,VALID,26,VALID,0.00429688,
2009-02-10, 03:12:04,VALID,1003.49,VALID,0,VALID,93.5835,VALID,0,VALID,24.2097,VALID,26,VALID,0,
2009-02-10, 03:13:04,VALID,1003.49,VALID,0,VALID,93.6064,VALID,0,VALID,24.2097,VALID,26,VALID,0,
2009-02-10, 03:14:04,VALID,1003.47,VALID,0,VALID,93.6292,VALID,0,VALID,24.2291,VALID,26,VALID,0,
2009-02-10, 03:15:04,VALID,1003.47,VALID,0,VALID,93.6445,VALID,0,VALID,24.1902,VALID,26,VALID,0,
2009-02-10, 03:16:04,VALID,1003.5,VALID,0,VALID,93.6674,VALID,0,VALID,24.1902,VALID,26,VALID,0,
2009-02-10, 03:17:04,VALID,1003.49,VALID,0,VALID,93.675,VALID,0,VALID,24.192,VALID,26,VALID,0,
2009-02-10, 03:18:04,VALID,1003.52,VALID,0,VALID,93.7055,VALID,0,VALID,24.192,VALID,26,VALID,0,
2009-02-10, 03:19:04,VALID,1003.49,VALID,0,VALID,93.7361,VALID,0,VALID,24.1726,VALID,26,VALID,0,
2009-02-10, 03:20:04,VALID,1003.47,VALID,0,VALID,93.7361,VALID,0,VALID,24.1726,VALID,26,VALID,0,
2009-02-10, 03:21:04,VALID,1003.49,VALID,0,VALID,93.7895,VALID,0,VALID,24.1513,VALID,26,VALID,0,
2009-02-10, 03:22:04,VALID,1003.52,VALID,0,VALID,93.8276,VALID,0,VALID,24.1707,VALID,26,VALID,0,
2009-02-10, 03:23:04,VALID,1003.48,VALID,0,VALID,93.8352,VALID,0,VALID,24.1513,VALID,26,VALID,0,
2009-02-10, 03:24:04,VALID,1003.48,VALID,0,VALID,93.8352,VALID,0,VALID,24.1513,VALID,26,VALID,0,
2009-02-10, 03:25:04,VALID,1003.47,VALID,0,VALID,93.8352,VALID,0,VALID,24.1123,VALID,26,VALID,0,
2009-02-10, 03:26:04,VALID,1003.5,VALID,0,VALID,93.8581,VALID,0,VALID,24.1318,VALID,26,VALID,0,
2009-02-10, 03:27:04,VALID,1003.5,VALID,0,VALID,93.8657,VALID,0,VALID,24.1318,VALID,26,VALID,0,
2009-02-10, 03:28:04,VALID,1003.51,VALID,0,VALID,93.8657,VALID,0,VALID,24.1123,VALID,26,VALID,0.0964844,
2009-02-10, 03:29:04,VALID,1003.52,VALID,0,VALID,93.8581,VALID,0,VALID,24.1123,VALID,26,VALID,0,
2009-02-10, 03:30:04,VALID,1003.5,VALID,0,VALID,93.9039,VALID,0,VALID,24.1142,VALID,26,VALID,0,
2009-02-10, 03:31:04,VALID,1003.5,VALID,0,VALID,93.8886,VALID,0,VALID,24.0929,VALID,26,VALID,0,
2009-02-10, 03:32:04,VALID,1003.5,VALID,0,VALID,93.8963,VALID,0,VALID,24.1123,VALID,26,VALID,0,
2009-02-10, 03:33:04,VALID,1003.5,VALID,0,VALID,93.9039,VALID,0,VALID,24.1142,VALID,26,VALID,0,
2009-02-10, 03:34:04,VALID,1003.5,VALID,0,VALID,93.8963,VALID,0,VALID,24.0929,VALID,26,VALID,0,
2009-02-10, 03:35:04,VALID,1003.52,VALID,0,VALID,93.8886,VALID,0,VALID,24.1142,VALID,26,VALID,0,
2009-02-10, 03:36:04,VALID,1003.49,VALID,0,VALID,93.9039,VALID,0,VALID,24.0734,VALID,26,VALID,0,
2009-02-10, 03:37:04,VALID,1003.5,VALID,0,VALID,93.8734,VALID,0,VALID,24.1142,VALID,26,VALID,0.251953,
2009-02-10, 03:38:04,VALID,1003.48,VALID,0,VALID,93.8657,VALID,0,VALID,24.0929,VALID,26,VALID,0.213672,
2009-02-10, 03:39:04,VALID,1003.48,VALID,0,VALID,93.8352,VALID,0,VALID,24.0734,VALID,26,VALID,0.159766,
2009-02-10, 03:40:04,VALID,1003.47,VALID,0,VALID,93.8429,VALID,0,VALID,24.0734,VALID,26,VALID,0.03125,
2009-02-10, 03:41:04,VALID,1003.49,VALID,0,VALID,93.8276,VALID,0.100563,VALID,24.1123,VALID,32,VALID,0.19375,
2009-02-10, 03:42:04,VALID,1003.48,VALID,0,VALID,93.7971,VALID,0.100563,VALID,24.1105,VALID,37,VALID,0,
2009-02-10, 03:43:04,VALID,1003.48,VALID,0,VALID,93.8047,VALID,0,VALID,24.1123,VALID,37,VALID,0,
2009-02-10, 03:44:04,VALID,1003.49,VALID,0,VALID,93.7818,VALID,0.100563,VALID,24.13,VALID,37,VALID,0.0253906,
2009-02-10, 03:45:04,VALID,1003.48,VALID,0,VALID,93.7589,VALID,0.100563,VALID,24.13,VALID,37,VALID,0,
2009-02-10, 03:46:04,VALID,1003.49,VALID,0,VALID,93.7284,VALID,0.100563,VALID,24.1707,VALID,51,VALID,0.290234,
2009-02-10, 03:47:04,VALID,1003.52,VALID,0,VALID,93.7208,VALID,0.100563,VALID,24.1513,VALID,51,VALID,0.121875,
2009-02-10, 03:48:04,VALID,1003.52,VALID,0,VALID,93.6826,VALID,0.100563,VALID,24.1494,VALID,62,VALID,0.224219,